EZY212 EGAC-EGCC

Flight info

Callsign EZY212
Flight time 0h 34m
Altitude 21000
Route DUFFY L15 PEPOD Q38 MAKUX
Aircraft A20N/M-SDE2E3FGHIRWXY/LB1

Departure

Time 2026-04-23 17:49
Airport George Best Belfast City Airport (EGAC)

Arrival

Time 2026-04-23 18:23
Airport Manchester Airport (EGCC)
Time Latitude Longitude Altitude Speed Heading
2026-04-23 17:09 54.61657 -5.86975 22 ft 0 kts 122°
2026-04-23 17:40 54.61658 -5.86977 47 ft 1 kts 122°
2026-04-23 17:40 54.61662 -5.86988 22 ft 1 kts 122°
2026-04-23 17:40 54.61666 -5.87000 21 ft 1 kts 120°
2026-04-23 17:41 54.61670 -5.87011 21 ft 1 kts 109°
2026-04-23 17:41 54.61674 -5.87037 24 ft 1 kts 77°
2026-04-23 17:41 54.61672 -5.87049 23 ft 1 kts 54°
2026-04-23 17:42 54.61664 -5.87064 23 ft 0 kts 34°
2026-04-23 17:45 54.61719 -5.86997 20 ft 10 kts 33°
2026-04-23 17:45 54.61782 -5.87048 20 ft 13 kts 306°
2026-04-23 17:46 54.61943 -5.87092 20 ft 18 kts 35°
2026-04-23 17:46 54.62045 -5.86971 20 ft 17 kts 33°
2026-04-23 17:46 54.62151 -5.86844 20 ft 20 kts 34°
2026-04-23 17:47 54.62268 -5.86705 21 ft 21 kts 35°
2026-04-23 17:47 54.62391 -5.86563 24 ft 19 kts 24°
2026-04-23 17:47 54.62464 -5.86469 23 ft 2 kts 191°
2026-04-23 17:48 54.62447 -5.86491 21 ft 4 kts 220°
2026-04-23 17:48 54.62420 -5.86526 23 ft 6 kts 215°
2026-04-23 17:48 54.62307 -5.86662 21 ft 49 kts 214°
2026-04-23 17:48 54.61814 -5.87246 21 ft 119 kts 215°
2026-04-23 17:49 54.61051 -5.88207 306 ft 144 kts 215°
2026-04-23 17:49 54.60198 -5.89328 718 ft 166 kts 214°
2026-04-23 17:49 54.59221 -5.90587 1205 ft 185 kts 212°
2026-04-23 17:49 54.58085 -5.91827 1737 ft 200 kts 200°
2026-04-23 17:50 54.56743 -5.92311 2614 ft 195 kts 175°
2026-04-23 17:50 54.54166 -5.90610 4226 ft 211 kts 143°
2026-04-23 17:50 54.53032 -5.88876 5057 ft 222 kts 138°
2026-04-23 17:51 54.51977 -5.87087 6323 ft 208 kts 137°
2026-04-23 17:51 54.50914 -5.85447 7404 ft 205 kts 146°
2026-04-23 17:51 54.48449 -5.82418 8725 ft 238 kts 147°
2026-04-23 17:52 54.47027 -5.80715 9252 ft 260 kts 147°
2026-04-23 17:52 54.43882 -5.76946 10577 ft 293 kts 147°
2026-04-23 17:52 54.42144 -5.74865 10959 ft 316 kts 147°
2026-04-23 17:53 54.38409 -5.70391 12375 ft 333 kts 147°
2026-04-23 17:53 54.36501 -5.68107 13136 ft 336 kts 147°
2026-04-23 17:53 54.34571 -5.65802 13925 ft 340 kts 146°
2026-04-23 17:54 54.32616 -5.63469 14668 ft 344 kts 146°
2026-04-23 17:54 54.30638 -5.61113 15389 ft 349 kts 146°
2026-04-23 17:54 54.26825 -5.55812 16888 ft 358 kts 135°
2026-04-23 17:55 54.23759 -5.48997 18456 ft 365 kts 127°
2026-04-23 17:55 54.22280 -5.45463 19191 ft 366 kts 127°
2026-04-23 17:55 54.20791 -5.41925 19907 ft 367 kts 127°
2026-04-23 17:56 54.19291 -5.38375 20642 ft 368 kts 127°
2026-04-23 17:56 54.16215 -5.31128 21364 ft 388 kts 127°
2026-04-23 17:56 54.14626 -5.27391 21402 ft 389 kts 127°
2026-04-23 17:57 54.13038 -5.23658 21397 ft 388 kts 127°
2026-04-23 17:57 54.11455 -5.19942 21403 ft 386 kts 128°
2026-04-23 17:57 54.08287 -5.12534 21399 ft 390 kts 127°
2026-04-23 17:58 54.06697 -5.08819 21397 ft 385 kts 128°
2026-04-23 17:58 54.05124 -5.05149 21400 ft 386 kts 127°
2026-04-23 17:58 54.03557 -5.01500 21393 ft 385 kts 128°
2026-04-23 17:58 54.01980 -4.97835 21389 ft 385 kts 127°
2026-04-23 17:59 54.00393 -4.94154 21396 ft 387 kts 127°
2026-04-23 17:59 53.98799 -4.90461 21389 ft 386 kts 127°
2026-04-23 17:59 53.97210 -4.86783 21394 ft 387 kts 127°
2026-04-23 17:59 53.95609 -4.83088 21394 ft 389 kts 127°
2026-04-23 18:00 53.94013 -4.79404 21384 ft 384 kts 128°
2026-04-23 18:00 53.92426 -4.75750 21390 ft 386 kts 128°
2026-04-23 18:00 53.91347 -4.73270 21384 ft 385 kts 128°
2026-04-23 18:00 53.89761 -4.69630 21389 ft 383 kts 127°
2026-04-23 18:01 53.88188 -4.66030 21396 ft 388 kts 127°
2026-04-23 18:01 53.86562 -4.62307 21397 ft 386 kts 127°
2026-04-23 18:01 53.84962 -4.58649 21387 ft 388 kts 127°
2026-04-23 18:01 53.83379 -4.55032 21383 ft 386 kts 127°
2026-04-23 18:02 53.81757 -4.51332 21386 ft 385 kts 127°
2026-04-23 18:02 53.80177 -4.47736 21386 ft 387 kts 127°
2026-04-23 18:02 53.78576 -4.44093 21377 ft 385 kts 127°
2026-04-23 18:02 53.76984 -4.40477 21375 ft 383 kts 127°
2026-04-23 18:03 53.75377 -4.36835 21378 ft 389 kts 127°
2026-04-23 18:03 53.73771 -4.33197 21380 ft 385 kts 127°
2026-04-23 18:03 53.72158 -4.29550 21375 ft 389 kts 127°
2026-04-23 18:03 53.70539 -4.25895 21373 ft 387 kts 127°
2026-04-23 18:04 53.68935 -4.22275 21376 ft 383 kts 127°
2026-04-23 18:04 53.67325 -4.18652 21376 ft 387 kts 128°
2026-04-23 18:04 53.65721 -4.15047 21374 ft 385 kts 127°
2026-04-23 18:04 53.64128 -4.11376 21302 ft 388 kts 123°
2026-04-23 18:05 53.62795 -4.07435 21056 ft 387 kts 115°
2026-04-23 18:05 53.61767 -4.03375 20812 ft 384 kts 112°
2026-04-23 18:05 53.60758 -3.99218 20563 ft 382 kts 112°
2026-04-23 18:05 53.59749 -3.95100 20317 ft 378 kts 113°
2026-04-23 18:06 53.58745 -3.91031 20083 ft 376 kts 113°
2026-04-23 18:06 53.57739 -3.86969 19818 ft 376 kts 113°
2026-04-23 18:06 53.56731 -3.82912 19319 ft 376 kts 113°
2026-04-23 18:06 53.55724 -3.78860 18782 ft 374 kts 113°
2026-04-23 18:07 53.54723 -3.74838 18198 ft 370 kts 114°
2026-04-23 18:07 53.53737 -3.70877 17680 ft 365 kts 114°
2026-04-23 18:07 53.52775 -3.67028 17217 ft 361 kts 114°
2026-04-23 18:07 53.51794 -3.63108 16706 ft 364 kts 114°
2026-04-23 18:08 53.50814 -3.59202 16195 ft 361 kts 115°
2026-04-23 18:08 53.49842 -3.55339 15703 ft 357 kts 114°
2026-04-23 18:08 53.48879 -3.51516 15205 ft 354 kts 114°
2026-04-23 18:08 53.47923 -3.47733 14730 ft 350 kts 114°
2026-04-23 18:09 53.46989 -3.44032 14251 ft 339 kts 115°
2026-04-23 18:09 53.46083 -3.40447 13726 ft 329 kts 115°
2026-04-23 18:09 53.45202 -3.36972 13205 ft 319 kts 115°
2026-04-23 18:09 53.44342 -3.33588 12695 ft 311 kts 115°
2026-04-23 18:10 53.43514 -3.30334 12456 ft 294 kts 115°
2026-04-23 18:10 53.42737 -3.27274 12278 ft 277 kts 115°
2026-04-23 18:10 53.41987 -3.24337 11817 ft 272 kts 116°
2026-04-23 18:10 53.41241 -3.21421 11361 ft 272 kts 116°
2026-04-23 18:11 53.40495 -3.18513 10946 ft 273 kts 116°
2026-04-23 18:11 53.39778 -3.15513 10246 ft 283 kts 105°
2026-04-23 18:11 53.39714 -3.12192 9468 ft 291 kts 79°
2026-04-23 18:11 53.40475 -3.09028 8704 ft 297 kts 63°
2026-04-23 18:12 53.41544 -3.06045 7955 ft 299 kts 58°
2026-04-23 18:12 53.42651 -3.03140 7554 ft 289 kts 59°
2026-04-23 18:12 53.43546 -3.00288 7432 ft 278 kts 75°
2026-04-23 18:12 53.43690 -2.97066 7394 ft 278 kts 102°
2026-04-23 18:13 53.42995 -2.94098 7308 ft 272 kts 127°
2026-04-23 18:13 53.41784 -2.91679 7017 ft 272 kts 132°
2026-04-23 18:13 53.40536 -2.89320 6705 ft 269 kts 133°
2026-04-23 18:13 53.39303 -2.86997 6391 ft 265 kts 133°
2026-04-23 18:14 53.38094 -2.84710 6021 ft 263 kts 132°
2026-04-23 18:14 53.36865 -2.82380 5396 ft 270 kts 132°
2026-04-23 18:14 53.35613 -2.80000 4660 ft 275 kts 132°
2026-04-23 18:14 53.34346 -2.77588 4214 ft 271 kts 132°
2026-04-23 18:15 53.33129 -2.75275 4066 ft 259 kts 132°
2026-04-23 18:15 53.31964 -2.73059 3863 ft 250 kts 132°
2026-04-23 18:15 53.30818 -2.70879 3522 ft 249 kts 132°
2026-04-23 18:15 53.29696 -2.68749 3351 ft 239 kts 131°
2026-04-23 18:16 53.28623 -2.66715 3259 ft 227 kts 131°
2026-04-23 18:16 53.27604 -2.64787 3175 ft 216 kts 131°
2026-04-23 18:16 53.26636 -2.62955 3091 ft 204 kts 131°
2026-04-23 18:17 53.24844 -2.59567 2996 ft 188 kts 131°
2026-04-23 18:17 53.24028 -2.58027 2987 ft 167 kts 131°
2026-04-23 18:17 53.23304 -2.56658 2988 ft 147 kts 131°
2026-04-23 18:17 53.22762 -2.55317 2973 ft 140 kts 111°
2026-04-23 18:18 53.22684 -2.53686 2995 ft 144 kts 81°
2026-04-23 18:18 53.23069 -2.52137 2995 ft 146 kts 63°
2026-04-23 18:18 53.23649 -2.50760 2998 ft 148 kts 56°
2026-04-23 18:18 53.24296 -2.49419 2962 ft 148 kts 54°
2026-04-23 18:19 53.24945 -2.48081 2802 ft 150 kts 53°
2026-04-23 18:19 53.25561 -2.46816 2614 ft 141 kts 55°
2026-04-23 18:19 53.26185 -2.45527 2429 ft 143 kts 56°
2026-04-23 18:19 53.26801 -2.44259 2246 ft 138 kts 55°
2026-04-23 18:20 53.27414 -2.42991 2056 ft 143 kts 54°
2026-04-23 18:20 53.28026 -2.41736 1860 ft 136 kts 55°
2026-04-23 18:20 53.28623 -2.40502 1672 ft 134 kts 54°
2026-04-23 18:20 53.29223 -2.39261 1488 ft 139 kts 55°
2026-04-23 18:21 53.29803 -2.38067 1305 ft 132 kts 54°
2026-04-23 18:21 53.30400 -2.36830 1117 ft 139 kts 54°
2026-04-23 18:21 53.30994 -2.35608 938 ft 135 kts 56°
2026-04-23 18:21 53.31575 -2.34384 742 ft 134 kts 53°
2026-04-23 18:22 53.32180 -2.33154 560 ft 140 kts 52°
2026-04-23 18:22 53.32791 -2.31906 389 ft 138 kts 53°
2026-04-23 18:22 53.33392 -2.30666 237 ft 136 kts 53°
2026-04-23 18:22 53.33907 -2.29598 232 ft 91 kts 51°
2026-04-23 18:23 53.34114 -2.29170 234 ft 52 kts 50°
2026-04-23 18:23 53.34445 -2.28582 230 ft 20 kts 30°
2026-04-23 18:24 53.34656 -2.28434 233 ft 16 kts 21°
2026-04-23 18:24 53.34748 -2.28324 234 ft 18 kts 52°
2026-04-23 18:24 53.34822 -2.28166 232 ft 16 kts 47°
2026-04-23 18:25 53.34971 -2.27862 234 ft 20 kts 51°
2026-04-23 18:25 53.35069 -2.27659 232 ft 24 kts 52°
2026-04-23 18:25 53.35181 -2.27423 232 ft 28 kts 52°
2026-04-23 18:25 53.35281 -2.27224 233 ft 18 kts 45°
2026-04-23 18:26 53.35386 -2.27208 234 ft 15 kts 333°
2026-04-23 18:26 53.35469 -2.27318 240 ft 16 kts 321°
2026-04-23 18:26 53.35566 -2.27450 234 ft 18 kts 321°
2026-04-23 18:26 53.35618 -2.27519 233 ft 0 kts 321°
2026-04-23 18:28 53.35619 -2.27521 233 ft 2 kts 321°
2026-04-23 18:28 53.35658 -2.27574 232 ft 13 kts 321°
2026-04-23 18:28 53.35750 -2.27649 235 ft 16 kts 342°
2026-04-23 18:28 53.35860 -2.27648 232 ft 17 kts
2026-04-23 18:29 53.35958 -2.27627 233 ft 12 kts
2026-04-23 18:29 53.36044 -2.27622 233 ft 12 kts 356°
2026-04-23 18:29 53.36087 -2.27725 233 ft 12 kts 287°
2026-04-23 18:29 53.36110 -2.27876 235 ft 15 kts 284°
2026-04-23 18:30 53.36172 -2.28021 232 ft 17 kts 314°
2026-04-23 18:30 53.36269 -2.28071 234 ft 16 kts 16°
2026-04-23 18:30 53.36354 -2.27995 232 ft 12 kts 44°
2026-04-23 18:30 53.36393 -2.27934 232 ft 4 kts 29°
2026-04-23 18:31 53.36425 -2.27929 232 ft 5 kts 359°
2026-04-23 18:31 53.36454 -2.27953 234 ft 6 kts 351°
2026-04-23 18:31 53.36494 -2.27908 234 ft 8 kts 46°
2026-04-23 18:31 53.36515 -2.27873 235 ft 3 kts 43°
2026-04-23 18:32 53.36527 -2.27853 232 ft 1 kts 44°